TimeEDT,TemperatureF,Dew PointF,Humidity,Sea Level PressureIn,VisibilityMPH,Wind Direction,Wind SpeedMPH,Gust SpeedMPH,PrecipitationIn,Events,Conditions,WindDirDegrees,DateUTC
12:58 AM,66.4,61.5,84,29.97,10.0,West,5.8,-,N/A,,Scattered Clouds,280,2013-08-20 04:58:00
1:58 AM,65.7,61.2,85,29.97,10.0,West,3.5,-,N/A,,Partly Cloudy,260,2013-08-20 05:58:00
2:58 AM,65.8,61.0,84,29.98,10.0,West,2.3,-,N/A,,Clear,280,2013-08-20 06:58:00
3:58 AM,64.0,60.6,89,29.98,10.0,WNW,3.5,-,N/A,,Clear,300,2013-08-20 07:58:00
4:58 AM,62.8,60.3,91,30.00,10.0,WNW,2.3,-,N/A,,Clear,290,2013-08-20 08:58:00
5:58 AM,63.0,61.0,93,30.02,10.0,West,2.3,-,N/A,,Clear,280,2013-08-20 09:58:00
6:58 AM,63.9,61.9,93,30.03,10.0,WNW,3.5,-,N/A,,Clear,300,2013-08-20 10:58:00
7:58 AM,67.5,61.5,81,30.04,10.0,West,2.3,-,N/A,,Clear,270,2013-08-20 11:58:00
8:58 AM,71.8,62.2,72,30.05,10.0,WNW,3.5,-,N/A,,Clear,290,2013-08-20 12:58:00
9:58 AM,75.6,64.2,68,30.06,10.0,WSW,4.6,-,N/A,,Clear,250,2013-08-20 13:58:00
10:58 AM,78.8,62.4,57,30.06,10.0,South,5.8,-,N/A,,Clear,190,2013-08-20 14:58:00
11:58 AM,81.3,62.6,53,30.05,10.0,Variable,1.2,-,N/A,,Clear,0,2013-08-20 15:58:00
12:58 PM,83.3,62.8,50,30.05,10.0,SW,5.8,-,N/A,,Partly Cloudy,220,2013-08-20 16:58:00
1:58 PM,84.2,60.6,45,30.04,10.0,Variable,1.2,-,N/A,,Partly Cloudy,0,2013-08-20 17:58:00
2:58 PM,83.5,58.8,43,30.03,10.0,WSW,5.8,-,N/A,,Scattered Clouds,250,2013-08-20 18:58:00
3:58 PM,86.2,58.6,39,30.03,10.0,WSW,6.9,-,N/A,,Scattered Clouds,250,2013-08-20 19:58:00
4:58 PM,83.5,62.6,49,30.03,10.0,SW,5.8,-,N/A,,Partly Cloudy,230,2013-08-20 20:58:00
5:58 PM,83.5,60.4,46,30.03,10.0,WSW,5.8,-,N/A,,Clear,240,2013-08-20 21:58:00
6:58 PM,79.3,65.1,62,30.04,10.0,SSE,4.6,-,N/A,,Clear,160,2013-08-20 22:58:00
7:58 PM,72.3,63.3,73,30.05,10.0,SSE,5.8,-,N/A,,Partly Cloudy,150,2013-08-20 23:58:00
8:39 PM,69.8,62.6,78,30.05,10.0,SSE,4.6,-,N/A,,Clear,150,2013-08-21 00:39:00
8:58 PM,70.2,63.1,78,30.07,10.0,Calm,Calm,-,N/A,,Clear,0,2013-08-21 00:58:00
9:09 PM,69.8,62.6,78,30.06,10.0,Calm,Calm,-,N/A,,Clear,0,2013-08-21 01:09:00
9:58 PM,70.7,63.5,78,30.08,10.0,SW,2.3,-,N/A,,Clear,220,2013-08-21 01:58:00
10:58 PM,65.7,63.7,93,30.07,10.0,SW,2.3,-,N/A,,Clear,230,2013-08-21 02:58:00
11:58 PM,66.0,65.7,99,30.08,10.0,West,2.3,-,N/A,,Clear,260,2013-08-21 03:58:00